Location: Albany
(35.0000°S, 118.0000°E)
Time: 19:42:44
(UTC-04:00)

JAS-1B - Pass Details

Date: 28 February 2018
Orbit: 912 x 1743 km, 99.1° (Epoch: 23 June)

Event Time Altitude Azimuth Distance (km) Brightness Sun altitude
Rises 10:00:30 0° 160° (SSE) 4,708 11.0 -43.2°
Reaches altitude 10° 10:03:26 10° 154° (SSE) 3,812 10.4 -43.5°
Enters shadow 10:08:16 33° 134° (SE) 2,558 9.1 -43.9°
